Regional Weather Roundup
Issued by NWS

Home | Current Version | Previous Version | Graphics & Text | Print | Product List | Glossary On
Versions: 1 2 3 4 5 6 7 8 9 10 11 12 13 14 15 16 17 18 19 20 21 22 23 24 25 26 27 28 29 30 31 32 33 34 35 36 37 38 39 40 41 42 43 44 45 46 47 48 49 50
000
ASUS43 KFSD 220010
RWRSD

WEATHER ROUNDUP FOR SOUTH DAKOTA
NATIONAL WEATHER SERVICE SIOUX FALLS SD
600 PM CST TUE FEB 21 2017

NOTE: "FAIR" INDICATES FEW OR NO CLOUDS BELOW 12,000 FEET WITH NO
SIGNIFICANT WEATHER AND/OR OBSTRUCTIONS TO VISIBILITY.


SDZ001>005-009-010-012>017-220100-
NORTHWEST AND NORTH CENTRAL SOUTH DAKOTA

CITY           SKY/WX    TMP DP  RH WIND       PRES   REMARKS
BUFFALO          N/A     63  23  21 W37G44    29.55S
FAITH            N/A     57  39  51 W8        29.63R
MOBRIDGE       CLEAR     56  38  50 E12       29.59F
$$

SDZ012>016-024>037-041>051-057-063-072>074-220100-
SOUTHWEST AND SOUTH CENTRAL SOUTH DAKOTA

CITY           SKY/WX    TMP DP  RH WIND       PRES   REMARKS
RAPID CTY ARPT CLEAR     66  26  22 W29G37    29.66S
PIERRE         CLEAR     60  36  40 SE8       29.61F
CUSTER         MOCLDY    55  24  30 SW17G36   29.75F
ELLSWORTH AFB  PTCLDY    66  29  25 W16       29.66R
PHILIP         CLEAR     71  28  20 W17       29.62F
PINE RIDGE     CLEAR     66  28  24 W17G24    29.75S
SPEARFISH      FAIR      61  28  29 SW24G35   29.68R
WINNER         FAIR      69  35  28 W7        29.67S
$$

SDZ004>011-016>023-039-040-220100-
NORTHEAST SOUTH DAKOTA

CITY           SKY/WX    TMP DP  RH WIND       PRES   REMARKS
ABERDEEN       CLEAR     54  40  59 SE5       29.65F
WATERTOWN      CLEAR     52  42  69 CALM      29.68F
BROOKINGS      CLEAR     59  41  51 SW3         N/A
SISSETON         N/A     54  44  69 SW3       29.67R
$$

SDZ017-020-022-023-036>040-048>070-220100-
SOUTHEAST SOUTH DAKOTA

CITY           SKY/WX    TMP DP  RH WIND       PRES   REMARKS
SIOUX FALLS    PTCLDY    58  40  51 CALM      29.70F
HURON          CLEAR     63  35  35 S6        29.65F
CHAMBERLAIN    CLEAR     64  40  41 E7        29.66S
MITCHELL       CLEAR     63  38  39 S5        29.68F
YANKTON        CLEAR     68  37  32 W7        29.69S
$$

ABBREVIATIONS USED IN REMARKS
   TC - TEMPERATURE IN CELSIUS
  WCI - WIND CHILL INDEX
   HX - HEAT INDEX
  VSB - VISIBILITY




USA.gov is the U.S. government's official web portal to all federal, state and local government web resources and services.